QPF
0.00 0.00 0.00 0.00 0.00 0.00 0.00 0.00 0.00 0.00 0.00 0.00 0.00 0.00 0.00 0.00 0.00 0.00 0.00 0.00 0.00 0.00 0.00 0.00 0.00 0.00 0.00 0.00 0.00 0.00 0.00 0.00 0.00 0.00 0.00 0.00 0.00 0.00 0.01 0.01 0.00 0.02 0.02 0.02
0.00 0.00 0.00 0.00 0.00 0.00 0.00 0.00 0.00 0.05 0.01 0.00 0.00 0.00 0.00 0.00 0.00 0.00 0.00 0.00 0.00 0.00 0.00 0.00 0.00 0.00 0.00 0.00 0.00 0.00 0.00 0.00 0.00 0.00 0.00 0.00 0.00 0.00 0.01 0.01 0.01 0.01 0.00 0.01
0.00 0.00 0.00 0.00 0.00 0.00 0.00 0.00 0.00 0.01 0.01 0.00 0.00 0.00 0.00 0.00 0.00 0.00 0.00 0.00 0.00 0.00 0.00 0.00 0.00 0.00 0.00 0.00 0.00 0.00 0.00 0.00 0.00 0.00 0.00 0.00 0.00 0.00 0.00 0.00 0.00 0.00 0.00 0.00
0.00 0.00 0.00 0.00 0.00 0.00 0.00 0.00 0.00 0.00 0.00 0.00 0.00 0.00 0.00 0.00 0.00 0.00 0.00 0.00 0.00 0.00 0.00 0.00 0.00 0.00 0.00 0.00 0.00 0.00 0.00 0.00 0.00 0.00 0.00 0.00 0.00 0.00 0.00 0.03 0.02 0.01 0.01 0.01
0.00 0.00 0.00 0.00 0.00 0.00 0.00 0.00 0.00 0.00 0.00 0.00 0.00 0.00 0.00 0.00 0.00 0.00 0.00 0.00 0.00 0.00 0.00 0.00 0.00 0.00 0.00 0.00 0.00 0.00 0.00 0.00 0.00 0.00 0.00 0.00 0.00 0.00 0.00 0.00 0.00 0.00 0.00 0.01
0.00 0.00 0.00 0.00 0.00 0.00 0.00 0.00 0.00 0.00 0.00 0.00 0.00 0.00 0.00 0.00 0.00 0.00 0.00 0.00 0.00 0.00 0.00 0.00 0.00 0.00 0.00 0.00 0.00 0.00 0.00 0.00 0.00 0.00 0.00 0.00 0.00 0.00 0.00 0.00 0.00 0.00 0.00 0.00
0.00 0.00 0.00 0.00 0.00 0.00 0.00 0.00 0.00 0.00 0.00 0.00 0.00 0.00 0.00 0.00 0.00 0.00 0.00 0.00 0.00 0.00 0.00 0.00 0.00 0.00 0.00 0.00 0.00 0.00 0.00 0.00 0.00 0.00 0.00 0.00 0.00 0.00 0.00 0.00 0.00 0.00 0.00 0.00
0.00 0.00 0.00 0.00 0.00 0.00 0.00 0.00 0.00 0.00 0.00 0.00 0.00 0.00 0.00 0.00 0.00 0.00 0.00 0.00 0.00 0.00 0.00 0.00 0.00 0.00 0.00 0.00 0.00 0.00 0.00 0.00 0.00 0.00 0.00 0.00 0.00 0.00 0.00 0.00 0.00 0.00 0.00 0.00
0.00 0.00 0.00 0.00 0.00 0.00 0.00 0.00 0.00 0.00 0.00 0.00 0.00 0.00 0.00 0.00 0.00 0.00 0.00 0.00 0.00 0.00 0.00 0.00 0.00 0.00 0.00 0.00 0.00 0.00 0.00 0.00 0.00 0.00 0.00 0.00 0.00 0.00 0.00 0.00 0.00 0.00 0.00 0.00
0.00 0.00 0.00 0.00 0.00 0.00 0.00 0.00 0.00 0.00 0.00 0.00 0.00 0.00 0.00 0.00 0.00 0.00 0.00 0.00 0.00 0.00 0.00 0.00 0.00 0.00 0.00 0.00 0.00 0.00 0.00 0.00 0.00 0.00 0.00 0.00 0.00 0.00 0.00 0.00 0.00 0.00 0.00 0.00
0.00 0.00 0.00 0.00 0.00 0.00 0.00 0.00 0.00 0.00 0.00 0.00 0.00 0.00 0.00 0.00 0.00 0.00 0.00 0.00 0.00 0.00 0.00 0.00 0.00 0.00 0.00 0.00 0.00 0.00 0.00 0.00 0.00 0.00 0.00 0.00 0.00 0.00 0.00 0.00 0.00 0.00 0.00 0.00
0.00 0.00 0.00 0.00 0.00 0.00 0.00 0.00 0.00 0.00 0.00 0.00 0.00 0.00 0.00 0.00 0.00 0.00 0.00 0.00 0.00 0.00 0.00 0.00 0.00 0.00 0.00 0.00 0.00 0.00 0.00 0.00 0.00 0.00 0.00 0.00 0.00 0.00 0.00 0.00 0.00 0.00 0.00 0.00
0.00 0.00 0.00 0.00 0.00 0.00 0.00 0.00 0.00 0.00 0.00 0.00 0.00 0.00 0.00 0.00 0.00 0.00 0.00 0.00 0.00 0.00 0.00 0.00 0.00 0.00 0.00 0.00 0.00 0.00 0.00 0.00 0.00 0.00 0.00 0.00 0.00 0.00 0.00 0.00 0.00 0.00 0.00 0.00
0.00 0.00 0.00 0.00 0.00 0.00 0.00 0.00 0.00 0.00 0.00 0.00 0.00 0.00 0.00 0.00 0.00 0.00 0.00 0.00 0.00 0.00 0.00 0.00 0.00 0.00 0.00 0.00 0.00 0.00 0.00 0.00 0.00 0.00 0.00 0.00 0.00 0.00 0.00 0.00 0.00 0.00 0.00 0.00
0.00 0.00 0.00 0.00 0.00 0.00 0.00 0.00 0.00 0.00 0.00 0.00 0.00 0.00 0.00 0.00 0.00 0.00 0.00 0.00 0.00 0.00 0.00 0.00 0.00 0.00 0.00 0.00 0.00 0.00 0.00 0.00 0.00 0.00 0.00 0.00 0.00 0.00 0.00 0.00 0.00 0.00 0.00 0.00
0.00 0.00 0.00 0.00 0.00 0.00 0.00 0.00 0.00 0.00 0.00 0.00 0.00 0.00 0.00 0.00 0.00 0.00 0.00 0.00 0.00 0.00 0.00 0.00 0.00 0.00 0.00 0.00 0.00 0.00 0.00 0.00 0.00 0.00 0.00 0.00 0.00 0.00 0.00 0.00 0.00 0.00 0.00 0.00
0.00 0.00 0.00 0.00 0.00 0.00 0.00 0.00 0.00 0.00 0.00 0.00 0.00 0.00 0.00 0.00 0.00 0.00 0.00 0.00 0.00 0.00 0.00 0.00 0.00 0.00 0.00 0.00 0.00 0.00 0.00 0.00 0.00 0.00 0.00 0.00 0.00 0.00 0.00 0.00 0.00 0.00 0.00 0.00
0.00 0.00 0.00 0.00 0.00 0.00 0.00 0.00 0.00 0.00 0.00 0.00 0.00 0.00 0.00 0.00 0.00 0.00 0.00 0.00 0.00 0.00 0.00 0.00 0.00 0.00 0.00 0.00 0.00 0.00 0.00 0.00 0.00 0.00 0.00 0.00 0.00 0.00 0.00 0.00 0.00 0.00 0.00 0.00
0.00 0.00 0.00 0.00 0.00 0.00 0.00 0.00 0.00 0.00 0.00 0.00 0.00 0.00 0.00 0.00 0.00 0.00 0.00 0.00 0.00 0.00 0.00 0.00 0.00 0.00 0.00 0.00 0.00 0.00 0.00 0.00 0.00 0.00 0.00 0.00 0.00 0.00 0.00 0.00 0.00 0.00 0.00 0.00
0.00 0.00 0.00 0.00 0.00 0.00 0.00 0.00 0.00 0.00 0.00 0.00 0.00 0.00 0.00 0.00 0.00 0.00 0.00 0.00 0.00 0.00 0.00 0.00 0.00 0.00 0.00 0.00 0.00 0.00 0.00 0.00 0.00 0.00 0.00 0.00 0.00 0.00 0.00 0.00 0.00 0.00 0.00 0.00
0.00 0.00 0.00 0.00 0.00 0.00 0.01 0.00 0.00 0.00 0.00 0.00 0.00 0.00 0.00 0.00 0.00 0.00 0.00 0.00 0.00 0.00 0.00 0.00 0.00 0.00 0.00 0.00 0.00 0.00 0.00 0.00 0.00 0.00 0.00 0.00 0.00 0.00 0.00 0.00 0.00 0.00 0.00 0.00
0.00 0.00 0.00 0.00 0.00 0.01 0.00 0.00 0.00 0.00 0.00 0.00 0.00 0.00 0.00 0.00 0.00 0.00 0.00 0.00 0.00 0.00 0.00 0.00 0.00 0.00 0.00 0.00 0.00 0.00 0.00 0.00 0.00 0.00 0.00 0.00 0.00 0.00 0.00 0.00 0.00 0.00 0.00 0.00
0.00 0.00 0.00 0.00 0.00 0.00 0.00 0.00 0.00 0.00 0.00 0.00 0.00 0.00 0.00 0.00 0.00 0.00 0.00 0.00 0.00 0.00 0.00 0.00 0.00 0.00 0.00 0.00 0.00 0.00 0.00 0.00 0.00 0.00 0.00 0.00 0.00 0.00 0.00 0.00 0.00 0.00 0.00 0.00
0.00 0.00 0.00 0.00 0.00 0.00 0.00 0.00 0.00 0.00 0.00 0.00 0.00 0.00 0.00 0.00 0.00 0.00 0.00 0.00 0.00 0.00 0.00 0.00 0.00 0.00 0.00 0.00 0.00 0.00 0.00 0.00 0.00 0.00 0.00 0.00 0.00 0.00 0.00 0.00 0.00 0.00 0.00 0.00
0.00 0.00 0.00 0.00 0.00 0.00 0.00 0.00 0.00 0.00 0.00 0.00 0.00 0.00 0.00 0.00 0.00 0.00 0.00 0.00 0.00 0.00 0.00 0.00 0.00 0.00 0.00 0.00 0.00 0.00 0.00 0.00 0.00 0.00 0.00 0.00 0.00 0.00 0.00 0.00 0.00 0.00 0.00 0.00
0.00 0.00 0.00 0.00 0.00 0.00 0.00 0.00 0.00 0.00 0.00 0.00 0.00 0.00 0.00 0.00 0.00 0.00 0.00 0.00 0.00 0.00 0.00 0.00 0.00 0.00 0.00 0.00 0.00 0.00 0.00 0.00 0.00 0.00 0.00 0.00 0.00 0.00 0.00 0.00 0.00 0.00 0.00 0.00
0.00 0.00 0.00 0.00 0.00 0.00 0.00 0.00 0.00 0.01 0.00 0.00 0.00 0.00 0.00 0.00 0.00 0.00 0.00 0.00 0.00 0.00 0.00 0.00 0.00 0.00 0.00 0.00 0.00 0.00 0.00 0.00 0.00 0.00 0.00 0.00 0.00 0.00 0.00 0.00 0.00 0.00 0.00 0.00
MSLP
1025.43 1024.91 1024.28 1023.60 1022.70 1021.62 1020.82 1020.54 1019.31 1016.33 1016.08 1016.97 1016.73 1015.95 1014.26 1012.48 1010.60 1009.26 1008.98 1009.14 1009.76 1010.29 1010.79 1011.88 1013.16 1014.39 1014.97 1015.00 1015.03 1015.22 1015.62 1015.82 1016.02 1016.11 1016.04 1015.71 1016.48 1017.69 1019.22 1020.32 1021.12 1020.90 1020.89 1019.52
1025.46 1024.97 1024.35 1023.79 1023.10 1022.58 1022.00 1021.12 1019.01 1016.63 1016.43 1016.98 1016.56 1015.00 1013.82 1012.48 1010.86 1009.81 1009.42 1009.59 1009.97 1010.48 1011.44 1012.68 1013.76 1014.84 1015.32 1015.27 1015.41 1015.89 1016.30 1016.84 1017.21 1017.30 1017.13 1016.76 1017.60 1018.61 1019.60 1020.27 1021.04 1020.46 1020.50 1020.05
1025.46 1025.01 1024.51 1023.93 1023.16 1022.67 1022.19 1021.43 1019.53 1017.59 1017.17 1016.78 1016.09 1014.96 1013.68 1012.43 1010.68 1010.08 1009.80 1010.02 1010.32 1011.04 1011.98 1012.64 1014.23 1015.01 1015.45 1015.43 1015.71 1016.14 1016.58 1017.53 1018.02 1018.63 1018.72 1018.76 1019.34 1019.54 1019.70 1020.03 1020.48 1020.79 1020.29 1019.83
1025.46 1025.05 1024.58 1023.96 1023.03 1022.21 1021.90 1021.15 1019.46 1017.76 1017.30 1016.82 1016.02 1015.14 1013.87 1012.25 1011.09 1010.50 1010.34 1010.72 1011.14 1011.81 1012.89 1013.58 1014.53 1015.18 1015.61 1015.89 1016.07 1016.33 1017.05 1018.53 1018.82 1019.40 1019.67 1019.84 1020.21 1020.14 1019.83 1019.71 1019.73 1019.88 1020.32 1020.13
1025.41 1025.06 1024.66 1024.10 1023.09 1021.90 1021.71 1021.00 1019.82 1018.59 1017.65 1016.62 1015.71 1015.13 1013.74 1012.29 1011.45 1011.09 1011.14 1011.89 1012.34 1012.41 1013.57 1014.06 1014.79 1015.14 1015.74 1016.23 1016.48 1016.64 1017.50 1018.83 1019.48 1020.60 1020.62 1020.71 1020.87 1020.49 1020.35 1019.99 1020.07 1020.17 1020.39 1020.52
1025.29 1025.09 1024.76 1024.16 1023.48 1022.43 1022.01 1021.20 1020.29 1019.83 1017.90 1016.85 1015.67 1014.63 1013.33 1012.30 1011.58 1011.69 1011.53 1012.60 1013.09 1013.79 1014.43 1014.59 1014.88 1015.08 1015.76 1016.15 1016.41 1017.18 1018.03 1019.09 1020.36 1021.37 1021.47 1021.26 1021.29 1021.05 1020.64 1020.44 1020.26 1020.25 1020.63 1020.79
1025.21 1025.14 1024.89 1024.43 1023.97 1023.58 1023.17 1022.15 1021.42 1020.27 1018.67 1017.48 1016.42 1014.99 1014.22 1012.79 1012.08 1012.21 1012.91 1012.77 1013.39 1014.51 1014.68 1014.98 1015.43 1015.99 1016.40 1016.39 1016.55 1017.21 1018.55 1019.55 1020.76 1022.12 1022.09 1022.41 1021.68 1020.80 1020.38 1020.47 1020.60 1020.48 1020.71 1021.01
1025.11 1025.04 1024.89 1024.54 1024.06 1023.54 1023.14 1022.46 1021.95 1020.89 1019.67 1018.16 1016.44 1015.31 1014.33 1013.34 1012.99 1013.36 1013.51 1013.63 1013.68 1014.29 1015.15 1016.16 1017.08 1017.51 1017.42 1017.18 1017.15 1017.75 1018.44 1019.73 1021.36 1022.53 1023.21 1022.93 1021.41 1020.36 1020.25 1020.22 1021.09 1020.80 1020.80 1021.06
1024.96 1024.98 1024.84 1024.66 1024.17 1023.62 1023.12 1022.35 1021.91 1021.18 1020.54 1018.45 1017.74 1016.26 1014.92 1014.17 1014.11 1014.64 1014.79 1014.66 1014.63 1015.07 1016.21 1016.95 1017.89 1018.29 1017.95 1017.98 1017.86 1018.20 1018.82 1019.70 1021.31 1022.98 1023.34 1023.03 1021.18 1020.17 1019.68 1019.95 1021.10 1021.01 1021.09 1021.20
1024.90 1024.96 1024.83 1024.56 1024.26 1023.67 1023.34 1022.57 1022.12 1021.78 1020.80 1018.59 1018.10 1016.89 1016.20 1015.42 1015.02 1015.54 1015.75 1015.61 1015.79 1016.15 1017.33 1017.98 1018.56 1018.51 1017.94 1018.41 1018.87 1019.23 1019.73 1020.96 1022.07 1022.94 1023.14 1022.08 1020.42 1019.83 1019.74 1020.46 1021.74 1021.10 1021.21 1021.47
1024.77 1024.85 1024.78 1024.59 1024.31 1023.86 1023.34 1022.78 1022.14 1021.96 1021.15 1019.13 1018.01 1017.44 1017.10 1016.28 1015.73 1015.75 1016.03 1016.47 1016.80 1017.46 1018.10 1018.59 1018.71 1018.70 1018.79 1018.94 1019.44 1019.51 1020.30 1021.29 1022.23 1022.75 1022.85 1021.75 1020.14 1019.79 1020.16 1020.81 1020.97 1021.36 1021.64 1022.19
1024.61 1024.71 1024.63 1024.47 1024.23 1023.98 1023.51 1023.14 1022.25 1021.94 1021.57 1019.57 1018.10 1017.04 1016.45 1016.49 1015.58 1015.53 1015.82 1016.51 1016.67 1017.00 1017.91 1018.40 1018.40 1019.09 1019.21 1019.89 1020.33 1019.86 1020.64 1020.77 1021.40 1021.87 1021.94 1020.88 1020.07 1020.12 1020.10 1020.57 1021.27 1021.94 1022.39 1023.12
1024.49 1024.61 1024.56 1024.39 1024.24 1024.05 1023.93 1023.52 1022.70 1021.83 1021.16 1019.48 1017.88 1016.02 1015.02 1014.93 1014.81 1014.81 1015.42 1016.06 1015.97 1016.61 1016.55 1017.45 1018.16 1018.84 1019.53 1020.36 1020.40 1020.37 1020.31 1020.35 1021.04 1021.13 1021.40 1020.83 1020.58 1020.56 1020.90 1021.43 1022.15 1022.59 1023.06 1023.70
1024.31 1024.48 1024.47 1024.32 1024.18 1024.00 1023.71 1023.63 1022.75 1022.81 1021.91 1020.38 1017.44 1015.63 1015.04 1014.38 1014.23 1014.36 1014.56 1014.88 1015.53 1015.97 1016.39 1017.25 1018.16 1018.91 1019.27 1019.91 1019.76 1020.22 1020.14 1020.11 1020.69 1021.03 1020.87 1020.91 1021.23 1021.35 1021.75 1022.36 1022.87 1023.36 1023.89 1024.30
1024.13 1024.26 1024.32 1024.26 1024.08 1023.78 1023.31 1022.90 1022.53 1022.50 1022.59 1020.76 1018.51 1016.55 1014.95 1014.33 1014.37 1014.42 1014.60 1014.91 1015.73 1016.60 1017.14 1017.84 1018.62 1018.73 1019.14 1019.51 1019.81 1020.11 1019.54 1019.81 1020.34 1020.56 1020.63 1020.95 1021.85 1022.22 1022.44 1022.93 1023.71 1024.11 1024.29 1024.95
1023.91 1024.10 1024.20 1024.23 1024.10 1023.79 1023.34 1022.65 1022.04 1022.33 1022.01 1021.41 1019.14 1016.38 1015.09 1014.59 1014.59 1014.73 1015.00 1015.40 1016.04 1016.73 1017.42 1018.13 1018.37 1018.29 1018.69 1019.51 1019.91 1019.32 1018.93 1018.86 1018.96 1019.90 1020.54 1021.18 1022.11 1022.72 1023.21 1023.68 1024.36 1024.72 1024.91 1025.47
1023.75 1023.92 1024.04 1024.06 1024.00 1024.17 1023.87 1022.85 1022.65 1022.28 1022.40 1021.54 1019.48 1017.18 1015.30 1014.85 1015.06 1015.53 1015.77 1015.79 1016.37 1016.82 1017.58 1018.12 1018.50 1018.59 1018.57 1019.20 1019.53 1019.14 1018.84 1018.91 1019.18 1019.84 1020.74 1021.93 1022.55 1023.55 1023.92 1024.40 1024.88 1025.21 1025.76 1026.23
1023.74 1023.87 1023.95 1023.91 1023.75 1023.48 1023.07 1021.59 1021.39 1022.34 1022.26 1021.36 1019.53 1017.36 1016.02 1015.24 1015.87 1016.40 1016.32 1016.75 1016.99 1017.20 1017.72 1018.13 1018.53 1018.70 1018.70 1019.05 1018.97 1018.79 1018.95 1019.51 1019.92 1020.56 1020.95 1021.96 1023.12 1023.90 1024.60 1024.96 1025.42 1026.07 1026.66 1027.07
1023.73 1023.94 1023.90 1023.93 1023.59 1023.20 1021.96 1021.15 1020.95 1021.43 1021.75 1020.59 1018.76 1017.35 1016.48 1015.54 1016.06 1016.58 1016.81 1017.03 1017.90 1017.92 1017.99 1018.15 1018.42 1018.66 1018.55 1018.46 1018.70 1018.73 1019.25 1019.82 1020.53 1021.12 1021.90 1022.83 1023.67 1024.52 1025.09 1025.55 1026.29 1026.85 1027.44 1027.66
1023.85 1024.24 1024.19 1023.52 1022.52 1022.09 1021.41 1020.90 1021.11 1021.13 1020.59 1020.22 1018.52 1016.59 1016.09 1015.83 1016.38 1016.89 1017.36 1017.52 1018.02 1018.31 1017.95 1017.85 1018.09 1018.44 1017.78 1017.94 1018.10 1018.51 1019.25 1019.91 1020.56 1021.60 1022.86 1023.56 1024.40 1025.00 1025.69 1026.34 1026.89 1027.39 1027.94 1028.20
1024.16 1024.07 1023.77 1022.66 1022.18 1021.88 1021.21 1020.59 1020.25 1019.94 1019.29 1018.38 1016.77 1015.77 1015.44 1015.47 1015.93 1016.58 1016.86 1017.28 1017.71 1018.09 1017.86 1017.88 1018.43 1018.49 1018.21 1018.20 1018.37 1018.77 1019.28 1019.92 1020.70 1021.43 1022.57 1023.45 1024.22 1025.20 1026.12 1026.90 1027.44 1027.97 1028.34 1028.64
1023.21 1023.31 1023.27 1023.13 1022.49 1021.14 1020.29 1019.57 1018.73 1018.11 1017.10 1015.69 1015.00 1014.67 1014.46 1014.91 1014.97 1015.79 1016.40 1016.63 1017.14 1017.42 1017.32 1018.01 1018.27 1017.39 1017.49 1017.86 1018.40 1018.87 1019.40 1020.39 1021.35 1022.00 1023.18 1024.07 1024.80 1025.57 1026.36 1027.07 1027.65 1028.23 1028.65 1028.98
1023.14 1023.46 1023.53 1022.97 1021.66 1020.36 1018.93 1017.83 1016.97 1016.20 1014.62 1013.89 1013.70 1014.03 1013.98 1014.59 1014.68 1015.32 1015.73 1016.22 1016.92 1016.71 1017.53 1017.50 1016.63 1016.47 1016.95 1017.52 1018.29 1018.90 1019.74 1020.72 1021.78 1022.82 1023.59 1024.45 1025.33 1025.97 1026.53 1027.26 1027.88 1028.28 1028.73 1029.16
1023.59 1023.54 1023.34 1022.43 1020.45 1018.67 1017.19 1016.39 1015.53 1014.38 1013.36 1012.96 1012.99 1013.40 1013.51 1014.14 1014.83 1015.10 1015.48 1015.81 1016.20 1017.00 1017.18 1016.35 1015.58 1015.66 1016.52 1017.25 1017.94 1018.85 1020.13 1021.01 1022.05 1023.10 1023.88 1024.79 1025.61 1026.42 1027.10 1027.60 1028.01 1028.45 1029.06 1029.40
1023.49 1023.19 1022.11 1020.42 1018.93 1017.79 1017.14 1016.04 1015.25 1014.01 1012.94 1012.27 1012.63 1012.99 1013.26 1014.06 1014.40 1014.58 1015.06 1015.63 1015.70 1015.48 1014.84 1014.18 1014.13 1015.06 1015.86 1016.89 1017.84 1019.01 1020.19 1021.16 1022.20 1023.17 1024.08 1025.08 1025.86 1026.70 1027.55 1027.94 1028.26 1028.61 1029.01 1029.40
1022.93 1022.19 1020.96 1019.58 1018.71 1017.72 1017.02 1016.04 1014.62 1013.58 1012.46 1011.74 1012.00 1012.66 1013.33 1013.69 1013.86 1014.31 1014.33 1014.74 1014.30 1013.21 1012.68 1012.54 1013.47 1014.52 1015.50 1016.55 1017.69 1018.83 1019.92 1021.05 1022.16 1023.20 1024.13 1025.04 1025.91 1026.72 1027.46 1028.07 1028.51 1028.91 1029.19 1029.58
1021.87 1020.80 1019.92 1019.53 1018.50 1017.68 1016.91 1016.33 1015.47 1014.33 1013.14 1011.49 1011.65 1012.11 1012.32 1012.66 1012.99 1013.24 1013.20 1013.03 1011.94 1011.48 1011.63 1011.99 1012.75 1013.71 1014.91 1016.22 1017.60 1018.78 1019.91 1021.11 1022.16 1023.15 1024.16 1024.99 1025.88 1026.69 1027.46 1028.10 1028.61 1028.93 1029.26 1029.59
Thickness
5416 5428 5442 5456 5472 5490 5505 5517 5533 5567 5577 5568 5577 5587 5606 5624 5642 5657 5654 5652 5645 5639 5636 5627 5615 5605 5607 5612 5612 5603 5599 5586 5575 5578 5580 5579 5566 5554 5529 5513 5520 5523 5506 5529
5407 5419 5433 5447 5460 5474 5488 5500 5525 5558 5566 5553 5572 5595 5605 5620 5633 5639 5644 5642 5646 5645 5633 5614 5612 5603 5610 5610 5603 5594 5588 5568 5548 5558 5558 5562 5549 5543 5536 5530 5509 5525 5529 5521
5401 5412 5425 5438 5452 5465 5479 5491 5514 5544 5554 5560 5580 5589 5599 5610 5634 5638 5644 5640 5642 5637 5629 5627 5605 5602 5607 5608 5599 5591 5583 5564 5553 5533 5544 5540 5530 5532 5533 5524 5513 5516 5511 5526
5395 5406 5418 5431 5447 5462 5473 5486 5510 5543 5548 5558 5571 5583 5593 5608 5618 5633 5638 5632 5634 5630 5615 5616 5605 5604 5601 5601 5596 5590 5575 5552 5551 5544 5539 5532 5525 5522 5523 5526 5529 5527 5520 5517
5391 5401 5412 5424 5441 5457 5468 5484 5506 5528 5537 5558 5567 5573 5590 5608 5616 5620 5623 5613 5615 5618 5608 5611 5603 5602 5596 5589 5589 5587 5572 5548 5548 5530 5532 5526 5517 5523 5521 5524 5527 5522 5519 5514
5388 5396 5406 5419 5432 5448 5461 5477 5495 5508 5541 5551 5568 5578 5595 5607 5615 5618 5625 5611 5606 5600 5602 5606 5605 5603 5596 5593 5589 5578 5566 5551 5539 5530 5533 5530 5510 5516 5523 5523 5528 5526 5511 5516
5385 5392 5401 5412 5423 5433 5445 5463 5479 5503 5530 5540 5556 5571 5583 5600 5612 5608 5609 5611 5605 5606 5608 5607 5602 5596 5592 5592 5589 5580 5560 5553 5539 5514 5530 5487 5518 5530 5532 5522 5521 5520 5517 5512
5382 5389 5397 5407 5417 5427 5441 5455 5470 5491 5510 5531 5556 5566 5581 5594 5599 5600 5601 5603 5608 5606 5601 5586 5579 5574 5580 5586 5589 5579 5567 5553 5530 5511 5485 5509 5528 5539 5533 5527 5514 5519 5517 5512
5380 5387 5394 5402 5411 5422 5438 5451 5466 5482 5495 5524 5536 5549 5573 5582 5584 5584 5589 5595 5598 5598 5586 5584 5571 5558 5573 5572 5577 5575 5568 5559 5531 5511 5530 5481 5521 5540 5539 5531 5504 5519 5517 5513
5377 5383 5390 5399 5407 5419 5430 5445 5459 5472 5488 5516 5524 5543 5554 5570 5574 5569 5575 5586 5586 5587 5573 5574 5567 5567 5586 5567 5560 5559 5554 5537 5523 5490 5508 5510 5542 5544 5537 5515 5502 5514 5515 5509
5374 5380 5387 5395 5404 5414 5426 5441 5453 5466 5482 5505 5521 5537 5545 5560 5566 5566 5573 5572 5574 5568 5572 5569 5569 5570 5571 5566 5564 5563 5551 5533 5508 5509 5505 5499 5544 5538 5521 5519 5519 5512 5503 5491
5373 5378 5385 5393 5402 5410 5421 5434 5448 5460 5473 5496 5517 5535 5548 5554 5569 5568 5570 5571 5570 5573 5568 5568 5570 5570 5563 5554 5539 5563 5540 5543 5523 5531 5514 5534 5538 5532 5530 5522 5510 5499 5488 5478
5370 5375 5382 5390 5399 5407 5414 5427 5443 5457 5474 5496 5515 5541 5556 5564 5570 5575 5568 5569 5580 5579 5581 5572 5573 5575 5552 5547 5546 5553 5556 5555 5537 5536 5535 5534 5532 5527 5519 5508 5496 5489 5480 5469
5366 5372 5378 5387 5395 5404 5413 5421 5439 5445 5462 5485 5518 5541 5551 5565 5570 5576 5579 5581 5579 5580 5581 5578 5571 5568 5563 5553 5557 5544 5544 5552 5542 5533 5534 5529 5522 5514 5505 5495 5487 5477 5467 5458
5362 5368 5375 5383 5392 5402 5414 5425 5434 5444 5453 5480 5500 5526 5548 5561 5565 5572 5576 5577 5576 5572 5574 5573 5569 5561 5564 5555 5551 5546 5554 5544 5528 5522 5530 5521 5508 5502 5496 5488 5474 5466 5461 5450
5358 5363 5371 5378 5387 5398 5412 5427 5436 5442 5453 5469 5495 5524 5545 5556 5562 5567 5570 5571 5571 5568 5570 5565 5565 5569 5561 5555 5548 5559 5559 5555 5549 5539 5530 5518 5505 5495 5485 5476 5467 5460 5455 5448
5352 5359 5367 5375 5384 5393 5403 5425 5429 5439 5447 5464 5491 5512 5539 5551 5554 5553 5561 5566 5567 5569 5563 5564 5561 5563 5561 5556 5540 5557 5557 5554 5548 5538 5525 5509 5499 5483 5477 5470 5463 5458 5450 5441
5345 5353 5361 5371 5381 5393 5403 5424 5433 5433 5444 5460 5490 5512 5530 5545 5542 5548 5552 5557 5557 5562 5560 5559 5559 5558 5558 5557 5558 5557 5556 5548 5540 5530 5521 5506 5493 5482 5471 5467 5461 5452 5444 5437
5336 5345 5356 5367 5379 5390 5407 5423 5433 5437 5445 5463 5493 5507 5513 5540 5539 5540 5547 5549 5550 5551 5558 5560 5559 5555 5559 5562 5559 5557 5549 5540 5531 5523 5511 5499 5487 5476 5470 5464 5456 5448 5441 5436
5328 5338 5348 5355 5380 5394 5407 5422 5430 5436 5448 5459 5484 5512 5525 5535 5533 5539 5542 5543 5543 5547 5554 5558 5559 5558 5568 5566 5563 5557 5548 5539 5531 5516 5499 5490 5480 5473 5466 5460 5455 5450 5443 5437
5318 5329 5342 5365 5377 5389 5405 5414 5428 5440 5456 5475 5499 5516 5526 5536 5538 5537 5539 5538 5542 5547 5555 5557 5550 5538 5561 5559 5559 5556 5549 5542 5532 5520 5504 5492 5483 5474 5466 5461 5456 5450 5446 5440
5316 5327 5341 5353 5369 5391 5407 5418 5441 5454 5469 5496 5512 5523 5534 5538 5541 5542 5542 5552 5551 5556 5552 5547 5541 5555 5564 5563 5559 5556 5550 5536 5523 5513 5498 5488 5483 5478 5472 5466 5460 5456 5451 5446
5310 5319 5330 5344 5366 5390 5418 5430 5454 5459 5491 5511 5523 5528 5534 5535 5539 5543 5548 5554 5544 5554 5549 5552 5554 5572 5571 5566 5561 5555 5546 5533 5520 5508 5498 5490 5484 5480 5476 5470 5465 5461 5457 5451
5294 5310 5319 5343 5373 5405 5437 5451 5464 5483 5506 5519 5528 5527 5536 5533 5541 5539 5552 5552 5553 5550 5541 5564 5566 5578 5572 5568 5564 5556 5541 5532 5519 5506 5498 5491 5487 5481 5476 5472 5469 5466 5459 5455
5295 5309 5328 5360 5389 5410 5423 5441 5461 5483 5502 5519 5520 5528 5535 5537 5543 5544 5548 5551 5554 5555 5564 5566 5587 5581 5576 5570 5564 5553 5542 5531 5519 5508 5500 5492 5488 5483 5476 5474 5472 5469 5464 5460
5297 5316 5340 5364 5381 5400 5416 5438 5465 5486 5506 5519 5525 5528 5528 5534 5536 5543 5550 5552 5560 5577 5581 5590 5589 5583 5578 5573 5565 5555 5545 5534 5522 5511 5502 5497 5490 5485 5481 5477 5474 5471 5468 5463
5306 5327 5346 5357 5381 5395 5418 5438 5449 5468 5494 5521 5519 5523 5531 5533 5538 5547 5552 5561 5580 5583 5593 5597 5593 5589 5582 5575 5565 5555 5546 5535 5524 5514 5506 5500 5493 5488 5483 5480 5476 5474 5471 5467